Time,TemperatureF,DewpointF,PressureIn,WindDirection,WindDirectionDegrees,WindSpeedMPH,WindSpeedGustMPH,Humidity,HourlyPrecipIn,Conditions,Clouds,dailyrainin,SoftwareType,DateUTC
2013-05-23 00:12:00,59.9,60.0,29.95,West,281,5.0,17.0,99,0.00,,,0.00,weatherlink.com 1.10,2013-05-23 04:12:00,
2013-05-23 01:14:00,60.0,60.0,29.95,West,266,5.0,16.0,99,0.00,,,0.00,weatherlink.com 1.10,2013-05-23 05:14:00,
2013-05-23 01:27:00,59.8,60.0,29.95,SSW,203,7.0,20.0,99,0.00,,,0.00,weatherlink.com 1.10,2013-05-23 05:27:00,
2013-05-23 01:42:00,60.0,60.0,29.95,SW,231,9.0,16.0,99,0.00,,,0.00,weatherlink.com 1.10,2013-05-23 05:42:00,
2013-05-23 01:57:00,59.9,60.0,29.94,WSW,240,11.0,16.0,99,0.00,,,0.00,weatherlink.com 1.10,2013-05-23 05:57:00,
2013-05-23 02:12:00,60.0,60.0,29.94,WNW,293,6.0,15.0,99,0.00,,,0.00,weatherlink.com 1.10,2013-05-23 06:12:00,
2013-05-23 02:27:00,60.4,60.0,29.94,WNW,288,3.0,14.0,99,0.00,,,0.00,weatherlink.com 1.10,2013-05-23 06:27:00,
2013-05-23 02:42:00,60.5,60.0,29.93,SW,215,12.0,18.0,99,0.00,,,0.00,weatherlink.com 1.10,2013-05-23 06:42:00,
2013-05-23 02:57:00,60.6,60.0,29.94,WSW,239,15.0,18.0,99,0.00,,,0.00,weatherlink.com 1.10,2013-05-23 06:57:00,
2013-05-23 03:12:00,60.7,61.0,29.94,SW,225,13.0,16.0,99,0.00,,,0.00,weatherlink.com 1.10,2013-05-23 07:12:00,
2013-05-23 03:27:00,60.7,61.0,29.94,SW,236,6.0,14.0,99,0.00,,,0.00,weatherlink.com 1.10,2013-05-23 07:27:00,
2013-05-23 03:42:00,60.7,61.0,29.94,SSW,201,5.0,19.0,99,0.00,,,0.00,weatherlink.com 1.10,2013-05-23 07:42:00,
2013-05-23 03:57:00,60.6,60.0,29.93,WSW,250,8.0,18.0,99,0.00,,,0.00,weatherlink.com 1.10,2013-05-23 07:57:00,
2013-05-23 04:12:00,60.4,60.0,29.93,SSW,206,6.0,16.0,99,0.00,,,0.00,weatherlink.com 1.10,2013-05-23 08:12:00,
2013-05-23 04:27:00,60.3,60.0,29.94,West,265,5.0,15.0,99,0.00,,,0.00,weatherlink.com 1.10,2013-05-23 08:27:00,
2013-05-23 04:42:00,60.2,60.0,29.94,SW,222,8.0,13.0,99,0.00,,,0.00,weatherlink.com 1.10,2013-05-23 08:42:00,
2013-05-23 04:57:00,60.3,60.0,29.94,WSW,253,11.0,15.0,99,0.00,,,0.00,weatherlink.com 1.10,2013-05-23 08:57:00,
2013-05-23 05:12:00,60.3,60.0,29.95,SSW,201,6.0,13.0,99,0.00,,,0.00,weatherlink.com 1.10,2013-05-23 09:12:00,
2013-05-23 05:27:00,60.4,60.0,29.95,SSW,205,7.0,15.0,99,0.00,,,0.00,weatherlink.com 1.10,2013-05-23 09:27:00,
2013-05-23 05:42:00,60.8,61.0,29.95,WSW,239,4.0,17.0,99,0.00,,,0.00,weatherlink.com 1.10,2013-05-23 09:42:00,
2013-05-23 05:57:00,60.9,61.0,29.95,West,264,7.0,16.0,99,0.00,,,0.00,weatherlink.com 1.10,2013-05-23 09:57:00,
2013-05-23 06:12:00,60.8,61.0,29.96,SW,233,6.0,14.0,99,0.00,,,0.00,weatherlink.com 1.10,2013-05-23 10:12:00,
2013-05-23 06:27:00,60.8,61.0,29.96,South,177,7.0,14.0,99,0.00,,,0.00,weatherlink.com 1.10,2013-05-23 10:27:00,
2013-05-23 06:42:00,61.0,61.0,29.96,SSW,205,6.0,12.0,99,0.00,,,0.00,weatherlink.com 1.10,2013-05-23 10:42:00,
2013-05-23 06:57:00,61.0,61.0,29.97,West,262,3.0,13.0,99,0.00,,,0.00,weatherlink.com 1.10,2013-05-23 10:57:00,
2013-05-23 07:12:00,61.3,61.0,29.97,NW,315,4.0,15.0,99,0.00,,,0.00,weatherlink.com 1.10,2013-05-23 11:12:00,
2013-05-23 07:27:00,61.5,61.0,29.97,NNW,342,9.0,17.0,99,0.00,,,0.00,weatherlink.com 1.10,2013-05-23 11:27:00,
2013-05-23 07:42:00,61.6,61.0,29.97,SSW,198,3.0,16.0,99,0.00,,,0.00,weatherlink.com 1.10,2013-05-23 11:42:00,
2013-05-23 07:57:00,61.4,61.0,29.97,SSW,195,7.0,19.0,99,0.00,,,0.00,weatherlink.com 1.10,2013-05-23 11:57:00,
2013-05-23 08:13:00,61.4,61.0,29.97,SW,228,6.0,16.0,99,0.00,,,0.00,weatherlink.com 1.10,2013-05-23 12:13:00,
2013-05-23 08:28:00,61.5,61.0,29.97,SW,226,7.0,17.0,99,0.00,,,0.00,weatherlink.com 1.10,2013-05-23 12:28:00,
2013-05-23 08:43:00,61.6,61.0,29.98,West,269,6.0,16.0,99,0.00,,,0.00,weatherlink.com 1.10,2013-05-23 12:43:00,
2013-05-23 08:58:00,61.4,61.0,29.98,West,263,6.0,15.0,99,0.00,,,0.00,weatherlink.com 1.10,2013-05-23 12:58:00,
2013-05-23 09:13:00,61.8,62.0,29.97,WSW,238,4.0,15.0,99,0.00,,,0.00,weatherlink.com 1.10,2013-05-23 13:13:00,
2013-05-23 09:28:00,61.8,62.0,29.97,SW,229,5.0,16.0,99,0.00,,,0.00,weatherlink.com 1.10,2013-05-23 13:28:00,
2013-05-23 09:43:00,62.2,62.0,29.97,WSW,246,9.0,20.0,99,0.00,,,0.00,weatherlink.com 1.10,2013-05-23 13:43:00,
2013-05-23 09:58:00,62.1,62.0,29.97,WSW,250,3.0,18.0,99,0.00,,,0.00,weatherlink.com 1.10,2013-05-23 13:58:00,
2013-05-23 10:13:00,62.1,62.0,29.97,WSW,248,17.0,17.0,99,0.00,,,0.00,weatherlink.com 1.10,2013-05-23 14:13:00,
2013-05-23 10:28:00,62.6,62.0,29.97,WSW,238,8.0,21.0,98,0.00,,,0.00,weatherlink.com 1.10,2013-05-23 14:28:00,
2013-05-23 10:43:00,63.0,63.0,29.97,SSW,201,8.0,20.0,98,0.00,,,0.00,weatherlink.com 1.10,2013-05-23 14:43:00,
2013-05-23 10:58:00,63.3,63.0,29.98,WSW,238,11.0,18.0,97,0.00,,,0.00,weatherlink.com 1.10,2013-05-23 14:58:00,
2013-05-23 11:13:00,63.3,63.0,29.98,WNW,297,11.0,19.0,97,0.00,,,0.00,weatherlink.com 1.10,2013-05-23 15:13:00,
2013-05-23 11:28:00,63.2,62.0,29.98,SW,231,5.0,18.0,97,0.00,,,0.00,weatherlink.com 1.10,2013-05-23 15:28:00,
2013-05-23 11:43:00,64.0,63.0,29.98,SW,224,20.0,20.0,97,0.00,,,0.00,weatherlink.com 1.10,2013-05-23 15:43:00,
2013-05-23 11:58:00,64.1,63.0,29.98,SW,231,12.0,18.0,95,0.00,,,0.00,weatherlink.com 1.10,2013-05-23 15:58:00,
2013-05-23 12:13:00,64.3,63.0,29.98,SW,228,14.0,21.0,94,0.00,,,0.00,weatherlink.com 1.10,2013-05-23 16:13:00,
2013-05-23 12:28:00,64.2,63.0,29.98,SW,224,15.0,18.0,94,0.00,,,0.00,weatherlink.com 1.10,2013-05-23 16:28:00,
2013-05-23 12:43:00,64.1,62.0,29.97,SW,214,10.0,22.0,94,0.00,,,0.00,weatherlink.com 1.10,2013-05-23 16:43:00,
2013-05-23 12:58:00,64.5,63.0,29.97,SW,215,10.0,22.0,94,0.00,,,0.00,weatherlink.com 1.10,2013-05-23 16:58:00,
2013-05-23 13:13:00,64.5,63.0,29.97,WSW,254,5.0,19.0,94,0.00,,,0.00,weatherlink.com 1.10,2013-05-23 17:13:00,
2013-05-23 13:28:00,64.6,62.0,29.97,SW,231,5.0,17.0,92,0.00,,,0.00,weatherlink.com 1.10,2013-05-23 17:28:00,
2013-05-23 13:43:00,64.5,63.0,29.97,SW,222,9.0,20.0,93,0.00,,,0.00,weatherlink.com 1.10,2013-05-23 17:43:00,
2013-05-23 13:58:00,64.2,63.0,29.96,WSW,238,18.0,25.0,94,0.00,,,0.00,weatherlink.com 1.10,2013-05-23 17:58:00,
2013-05-23 14:13:00,64.7,63.0,29.96,WSW,242,5.0,19.0,93,0.00,,,0.00,weatherlink.com 1.10,2013-05-23 18:13:00,
2013-05-23 14:28:00,65.2,63.0,29.96,SW,233,7.0,18.0,93,0.00,,,0.00,weatherlink.com 1.10,2013-05-23 18:28:00,
2013-05-23 14:43:00,65.6,63.0,29.96,WSW,238,7.0,15.0,92,0.00,,,0.00,weatherlink.com 1.10,2013-05-23 18:43:00,
2013-05-23 14:58:00,65.6,64.0,29.96,WSW,255,10.0,17.0,93,0.00,,,0.00,weatherlink.com 1.10,2013-05-23 18:58:00,
2013-05-23 15:13:00,66.4,64.0,29.96,SSE,162,8.0,16.0,91,0.00,,,0.00,weatherlink.com 1.10,2013-05-23 19:13:00,
2013-05-23 15:28:00,66.4,64.0,29.96,SW,224,18.0,19.0,91,0.00,,,0.00,weatherlink.com 1.10,2013-05-23 19:28:00,
2013-05-23 15:43:00,65.8,64.0,29.96,SW,231,10.0,22.0,92,0.00,,,0.00,weatherlink.com 1.10,2013-05-23 19:43:00,
2013-05-23 15:58:00,65.4,63.0,29.95,SW,225,20.0,23.0,92,0.00,,,0.00,weatherlink.com 1.10,2013-05-23 19:58:00,
2013-05-23 16:13:00,65.0,63.0,29.95,SW,215,18.0,23.0,93,0.00,,,0.00,weatherlink.com 1.10,2013-05-23 20:13:00,
2013-05-23 16:28:00,64.9,63.0,29.95,SW,219,21.0,25.0,92,0.00,,,0.00,weatherlink.com 1.10,2013-05-23 20:28:00,
2013-05-23 16:43:00,64.7,63.0,29.95,WSW,253,13.0,28.0,93,0.00,,,0.00,weatherlink.com 1.10,2013-05-23 20:43:00,
2013-05-23 16:58:00,64.8,63.0,29.95,SW,222,26.0,29.0,93,0.00,,,0.00,weatherlink.com 1.10,2013-05-23 20:58:00,
2013-05-23 17:13:00,65.0,63.0,29.95,SW,226,21.0,27.0,93,0.00,,,0.00,weatherlink.com 1.10,2013-05-23 21:13:00,
2013-05-23 17:28:00,65.0,63.0,29.94,SW,219,24.0,30.0,93,0.00,,,0.00,weatherlink.com 1.10,2013-05-23 21:28:00,
2013-05-23 17:43:00,65.0,63.0,29.94,SW,235,19.0,27.0,93,0.00,,,0.00,weatherlink.com 1.10,2013-05-23 21:43:00,
2013-05-23 17:58:00,64.8,63.0,29.94,SSW,205,22.0,26.0,94,0.00,,,0.00,weatherlink.com 1.10,2013-05-23 21:58:00,
2013-05-23 18:13:00,64.9,63.0,29.94,SW,215,17.0,26.0,94,0.00,,,0.00,weatherlink.com 1.10,2013-05-23 22:13:00,
2013-05-23 18:28:00,64.8,63.0,29.94,SSW,208,22.0,27.0,94,0.00,,,0.00,weatherlink.com 1.10,2013-05-23 22:28:00,
2013-05-23 18:44:00,64.6,63.0,29.95,SW,222,18.0,27.0,94,0.00,,,0.00,weatherlink.com 1.10,2013-05-23 22:44:00,
2013-05-23 18:59:00,64.1,63.0,29.95,SSW,212,22.0,26.0,95,0.00,,,0.00,weatherlink.com 1.10,2013-05-23 22:59:00,
2013-05-23 19:14:00,64.0,63.0,29.95,SSW,210,20.0,22.0,95,0.02,,,0.02,weatherlink.com 1.10,2013-05-23 23:14:00,
2013-05-23 19:29:00,64.3,63.0,29.95,SW,221,19.0,23.0,95,0.02,,,0.02,weatherlink.com 1.10,2013-05-23 23:29:00,
2013-05-23 19:44:00,64.2,63.0,29.95,SW,226,17.0,24.0,95,0.02,,,0.02,weatherlink.com 1.10,2013-05-23 23:44:00,
2013-05-23 19:59:00,64.1,63.0,29.95,SW,224,16.0,24.0,95,0.02,,,0.02,weatherlink.com 1.10,2013-05-23 23:59:00,
2013-05-23 20:14:00,63.9,63.0,29.95,SSW,201,16.0,23.0,96,0.00,,,0.02,weatherlink.com 1.10,2013-05-24 00:14:00,
2013-05-23 20:29:00,63.8,62.0,29.95,SSW,201,16.0,21.0,95,0.00,,,0.02,weatherlink.com 1.10,2013-05-24 00:29:00,
2013-05-23 20:44:00,63.7,62.0,29.95,SSW,211,19.0,24.0,95,0.00,,,0.02,weatherlink.com 1.10,2013-05-24 00:44:00,
2013-05-23 20:59:00,63.6,63.0,29.94,SSW,211,24.0,30.0,96,0.00,,,0.02,weatherlink.com 1.10,2013-05-24 00:59:00,
2013-05-23 21:14:00,63.4,62.0,29.94,SSW,196,17.0,27.0,96,0.01,,,0.03,weatherlink.com 1.10,2013-05-24 01:14:00,
2013-05-23 21:29:00,63.2,62.0,29.95,SSW,212,15.0,26.0,97,0.04,,,0.06,weatherlink.com 1.10,2013-05-24 01:29:00,
2013-05-23 21:44:00,63.3,63.0,29.94,South,191,12.0,23.0,97,0.06,,,0.08,weatherlink.com 1.10,2013-05-24 01:44:00,
2013-05-23 21:59:00,63.0,62.0,29.94,SSW,211,17.0,24.0,97,0.06,,,0.08,weatherlink.com 1.10,2013-05-24 01:59:00,
2013-05-23 22:14:00,62.5,62.0,29.93,SW,221,14.0,20.0,97,0.05,,,0.08,weatherlink.com 1.10,2013-05-24 02:14:00,
2013-05-23 22:29:00,62.1,61.0,29.93,SSW,211,10.0,17.0,97,0.05,,,0.12,weatherlink.com 1.10,2013-05-24 02:29:00,
2013-05-23 22:44:00,62.1,61.0,29.92,SSW,200,14.0,22.0,97,0.04,,,0.12,weatherlink.com 1.10,2013-05-24 02:44:00,
2013-05-23 22:59:00,62.7,62.0,29.92,SSW,207,12.0,20.0,97,0.05,,,0.13,weatherlink.com 1.10,2013-05-24 02:59:00,
2013-05-23 23:14:00,63.0,62.0,29.91,SSW,194,14.0,19.0,97,0.05,,,0.13,weatherlink.com 1.10,2013-05-24 03:14:00,
2013-05-23 23:29:00,62.9,62.0,29.91,SSE,153,17.0,21.0,97,0.01,,,0.13,weatherlink.com 1.10,2013-05-24 03:29:00,
2013-05-23 23:44:00,63.1,62.0,29.90,SW,217,12.0,23.0,97,0.02,,,0.14,weatherlink.com 1.10,2013-05-24 03:44:00,
2013-05-23 23:59:00,63.3,63.0,29.89,SSW,198,13.0,22.0,97,0.02,,,0.15,weatherlink.com 1.10,2013-05-24 03:59:00,